PAC561 KLAX-EFHK

Flight info

Callsign PAC561
Flight time N/A
Altitude 30000
Route LADYJ4 CSTRO DCT CANDA/N0498F290 DCT BAM/N0496F300 DCT BOI/N0498F290 DCT DOXIE DCT YQL/N0491F310 Q896 MEETO Q959 YVC DCT 59N100W 64N090W 68N080W/N0494F330 71N070W/M083F330 DCT INGUM DCT 73N060W 7440N04000W 74N020W 71N000E/N0477F330 DCT PISEL/N0475F350 DCT ENETI Y362 LAKUT
Aircraft B77L/H-SDE1E2E3FGHIJ2J3J4J5M1RWXY/LB1D1

Departure

Time N/A
Airport Los Angeles International Airport (KLAX)

Arrival

Time 2026-04-21 12:33
Airport Helsinki Vantaa Airport (EFHK)
Time Latitude Longitude Altitude Speed Heading
2026-04-21 12:08 61.38053 23.14629 35222 ft 490 kts 142°
2026-04-21 12:09 61.32405 23.22574 35219 ft 490 kts 142°
2026-04-21 12:09 61.26747 23.30497 35214 ft 490 kts 143°
2026-04-21 12:10 61.21079 23.38403 35215 ft 490 kts 143°
2026-04-21 12:10 61.15416 23.46268 35210 ft 490 kts 143°
2026-04-21 12:11 61.09682 23.53758 35221 ft 494 kts 150°
2026-04-21 12:11 61.03176 23.58482 35208 ft 500 kts 167°
2026-04-21 12:12 60.96251 23.60212 35200 ft 500 kts 172°
2026-04-21 12:12 60.92852 23.60876 34787 ft 480 kts 172°
2026-04-21 12:12 60.89582 23.61533 33827 ft 468 kts 171°
2026-04-21 12:12 60.86322 23.62239 31877 ft 477 kts 171°
2026-04-21 12:13 60.83006 23.63005 30300 ft 480 kts 172°
2026-04-21 12:13 60.79698 23.63787 28696 ft 476 kts 172°
2026-04-21 12:13 60.76432 23.64564 27295 ft 469 kts 172°
2026-04-21 12:13 60.73216 23.65327 26028 ft 461 kts 172°
2026-04-21 12:14 60.70059 23.66071 24845 ft 453 kts 172°
2026-04-21 12:14 60.66951 23.66802 23670 ft 446 kts 172°
2026-04-21 12:14 60.63936 23.67511 22367 ft 439 kts 172°
2026-04-21 12:14 60.60932 23.68215 21160 ft 431 kts 172°
2026-04-21 12:15 60.57977 23.68903 20030 ft 423 kts 172°
2026-04-21 12:15 60.55078 23.69579 18949 ft 416 kts 172°
2026-04-21 12:15 60.52241 23.70355 17782 ft 407 kts 165°
2026-04-21 12:15 60.49669 23.72450 16540 ft 395 kts 143°
2026-04-21 12:16 60.47636 23.76030 15391 ft 382 kts 125°
2026-04-21 12:16 60.46179 23.80363 14996 ft 366 kts 118°
2026-04-21 12:16 60.44835 23.84633 14531 ft 357 kts 114°
2026-04-21 12:16 60.44059 23.89267 14114 ft 343 kts 92°
2026-04-21 12:17 60.44099 23.94018 13676 ft 336 kts 78°
2026-04-21 12:17 60.44489 24.00006 13118 ft 343 kts 78°
2026-04-21 12:17 60.44518 24.17411 11519 ft 346 kts 91°
2026-04-21 12:17 60.44316 24.22239 11120 ft 341 kts 90°
2026-04-21 12:18 60.44139 24.26950 10965 ft 329 kts 90°
2026-04-21 12:18 60.43985 24.31486 10845 ft 317 kts 89°
2026-04-21 12:18 60.43850 24.35864 10703 ft 306 kts 89°
2026-04-21 12:18 60.43721 24.40082 10567 ft 295 kts 89°
2026-04-21 12:19 60.43598 24.44094 10442 ft 284 kts 88°
2026-04-21 12:19 60.43435 24.47989 10305 ft 272 kts 97°
2026-04-21 12:19 60.42656 24.51402 10205 ft 267 kts 124°
2026-04-21 12:19 60.41295 24.54059 10015 ft 281 kts 136°
2026-04-21 12:20 60.39758 24.56603 9683 ft 288 kts 136°
2026-04-21 12:20 60.38200 24.59185 9345 ft 289 kts 136°
2026-04-21 12:20 60.36653 24.61737 9010 ft 286 kts 137°
2026-04-21 12:20 60.35099 24.64190 8650 ft 280 kts 146°
2026-04-21 12:21 60.33265 24.65364 8349 ft 278 kts 178°
2026-04-21 12:21 60.31412 24.64675 8056 ft 276 kts 205°
2026-04-21 12:21 60.29808 24.62547 7803 ft 280 kts 227°
2026-04-21 12:21 60.28490 24.59663 7626 ft 278 kts 230°
2026-04-21 12:22 60.27199 24.56814 7497 ft 270 kts 230°
2026-04-21 12:22 60.25956 24.54034 7008 ft 265 kts 231°
2026-04-21 12:22 60.24759 24.51298 7097 ft 259 kts 232°
2026-04-21 12:22 60.23592 24.48535 6949 ft 255 kts 232°
2026-04-21 12:23 60.22451 24.45792 6711 ft 259 kts 233°
2026-04-21 12:23 60.21325 24.43103 6695 ft 250 kts 232°
2026-04-21 12:23 60.20210 24.40445 6643 ft 247 kts 232°
2026-04-21 12:23 60.19105 24.37825 6461 ft 243 kts 232°
2026-04-21 12:24 60.18020 24.35263 6154 ft 237 kts 232°
2026-04-21 12:24 60.16956 24.32743 5844 ft 237 kts 231°
2026-04-21 12:24 60.15778 24.30466 5558 ft 236 kts 210°
2026-04-21 12:24 60.14185 24.29854 5200 ft 237 kts 167°
2026-04-21 12:25 60.12758 24.31315 4922 ft 230 kts 132°
2026-04-21 12:25 60.11910 24.33954 4634 ft 225 kts 106°
2026-04-21 12:25 60.11641 24.36941 4322 ft 219 kts 83°
2026-04-21 12:25 60.11944 24.39910 3950 ft 218 kts 70°
2026-04-21 12:26 60.12382 24.42791 3803 ft 212 kts 70°
2026-04-21 12:26 60.12803 24.45569 3740 ft 204 kts 70°
2026-04-21 12:26 60.13194 24.48187 3626 ft 190 kts 70°
2026-04-21 12:26 60.13562 24.50686 3367 ft 184 kts 70°
2026-04-21 12:27 60.14107 24.52935 2930 ft 179 kts 45°
2026-04-21 12:27 60.14961 24.54726 2511 ft 177 kts 45°
2026-04-21 12:27 60.15795 24.56572 2393 ft 183 kts 45°
2026-04-21 12:27 60.16659 24.58463 2345 ft 182 kts 45°
2026-04-21 12:28 60.17493 24.60289 2377 ft 179 kts 44°
2026-04-21 12:28 60.18329 24.62105 2356 ft 175 kts 45°
2026-04-21 12:28 60.19152 24.63903 2355 ft 174 kts 44°
2026-04-21 12:28 60.19942 24.65619 2367 ft 160 kts 44°
2026-04-21 12:29 60.20674 24.67208 2383 ft 151 kts 44°
2026-04-21 12:29 60.21375 24.68727 2410 ft 149 kts 44°
2026-04-21 12:29 60.22071 24.70252 2419 ft 147 kts 44°
2026-04-21 12:29 60.22764 24.71764 2407 ft 148 kts 43°
2026-04-21 12:30 60.23455 24.73271 2403 ft 144 kts 44°
2026-04-21 12:30 60.24145 24.74767 2387 ft 151 kts 43°
2026-04-21 12:30 60.24864 24.76336 2171 ft 151 kts 44°
2026-04-21 12:30 60.25566 24.77870 1949 ft 145 kts 44°
2026-04-21 12:31 60.26240 24.79343 1775 ft 145 kts 43°
2026-04-21 12:31 60.26935 24.80866 1592 ft 150 kts 44°
2026-04-21 12:31 60.27643 24.82410 1374 ft 150 kts 44°
2026-04-21 12:31 60.28339 24.83933 1133 ft 147 kts 44°
2026-04-21 12:32 60.29032 24.85444 909 ft 147 kts 44°
2026-04-21 12:32 60.29728 24.86966 688 ft 148 kts 43°
2026-04-21 12:32 60.30408 24.88457 408 ft 139 kts 44°
2026-04-21 12:32 60.31037 24.89831 243 ft 128 kts 43°
2026-04-21 12:33 60.31598 24.91058 153 ft 110 kts 43°
2026-04-21 12:33 60.32039 24.92020 159 ft 72 kts 47°
2026-04-21 12:33 60.32304 24.92601 174 ft 54 kts 47°
2026-04-21 12:33 60.32452 24.93153 180 ft 38 kts 78°
2026-04-21 12:34 60.32504 24.93633 176 ft 25 kts 77°
2026-04-21 12:34 60.32554 24.93952 175 ft 24 kts 55°
2026-04-21 12:34 60.32667 24.94200 176 ft 24 kts 48°
2026-04-21 12:34 60.32780 24.94449 178 ft 24 kts 47°
2026-04-21 12:35 60.32875 24.94659 179 ft 20 kts 47°
2026-04-21 12:35 60.32903 24.94720 180 ft 0 kts 47°
2026-04-21 12:35 60.32904 24.94722 180 ft 2 kts 47°
2026-04-21 12:35 60.32923 24.94852 181 ft 13 kts 119°
2026-04-21 12:36 60.32839 24.94947 180 ft 15 kts 160°
2026-04-21 12:36 60.32728 24.95020 183 ft 19 kts 162°
2026-04-21 12:36 60.32595 24.95108 201 ft 20 kts 162°
2026-04-21 12:36 60.32461 24.95196 183 ft 20 kts 162°
2026-04-21 12:37 60.32329 24.95291 181 ft 18 kts 153°
2026-04-21 12:37 60.32247 24.95439 179 ft 16 kts 135°
2026-04-21 12:37 60.32164 24.95594 177 ft 16 kts 139°
2026-04-21 12:37 60.32079 24.95749 178 ft 16 kts 137°
2026-04-21 12:38 60.31995 24.95907 177 ft 17 kts 137°
2026-04-21 12:38 60.31963 24.96022 174 ft 8 kts 69°
2026-04-21 12:38 60.32003 24.96122 173 ft 10 kts 47°
2026-04-21 12:38 60.32048 24.96222 172 ft 10 kts 47°
2026-04-21 12:39 60.32096 24.96326 172 ft 11 kts 47°
2026-04-21 12:39 60.32146 24.96438 173 ft 11 kts 47°
2026-04-21 12:39 60.32197 24.96550 172 ft 11 kts 47°
2026-04-21 12:39 60.32246 24.96665 172 ft 11 kts 61°
2026-04-21 12:40 60.32203 24.96784 170 ft 12 kts 149°
2026-04-21 12:40 60.32146 24.96898 171 ft 12 kts 97°
2026-04-21 12:40 60.32111 24.97045 170 ft 13 kts 143°
2026-04-21 12:40 60.32003 24.97161 169 ft 22 kts 153°
2026-04-21 12:41 60.31864 24.97304 166 ft 23 kts 153°
2026-04-21 12:41 60.31723 24.97451 164 ft 23 kts 153°
2026-04-21 12:41 60.31581 24.97596 160 ft 24 kts 153°
2026-04-21 12:41 60.31448 24.97733 160 ft 10 kts 153°
2026-04-21 12:42 60.31386 24.97729 162 ft 10 kts 223°
2026-04-21 12:42 60.31325 24.97673 164 ft 10 kts 185°
2026-04-21 12:42 60.31256 24.97663 166 ft 10 kts 182°
2026-04-21 12:42 60.31218 24.97684 167 ft 0 kts 151°
2026-04-21 12:43 60.31214 24.97688 167 ft 1 kts 151°
2026-04-21 12:43 60.31210 24.97693 167 ft 1 kts 151°
2026-04-21 12:43 60.31170 24.97721 167 ft 2 kts 198°
2026-04-21 12:43 60.31163 24.97692 167 ft 2 kts 242°
2026-04-21 12:44 60.31155 24.97661 167 ft 2 kts 243°
2026-04-21 12:44 60.31147 24.97630 168 ft 3 kts 243°
2026-04-21 12:44 60.31144 24.97615 168 ft 0 kts 243°